Temperature
13 14 14 15 15 15 16 16 17 18 18 16 15 15 15 15 16 16 16 17 17 17 17 17 17 17 17 17 16 16 16 16 16 16 15 15 15 15
13 13 13 14 14 15 15 15 16 17 18 17 15 15 14 15 15 15 16 16 16 16 17 17 17 16 16 16 16 16 16 15 15 15 15 15 15 15
11 12 12 13 14 14 14 15 15 15 16 17 15 14 14 14 14 14 15 15 16 16 16 16 16 16 16 16 16 15 15 15 15 15 15 15 15 15
10 11 12 12 13 13 14 14 14 15 15 16 15 14 14 14 14 14 14 14 15 15 15 15 15 15 15 15 15 15 15 15 15 15 15 15 15 15
10 10 10 11 12 12 13 13 14 14 14 15 15 14 13 13 13 13 13 13 14 14 14 14 15 15 15 15 14 14 14 14 14 14 14 14 14 14
9 9 10 10 11 11 12 12 13 13 13 14 14 14 13 13 13 13 12 12 12 13 13 13 14 14 14 14 14 14 14 14 13 14 14 14 14 14
9 9 9 10 10 10 11 11 12 12 13 13 14 14 13 13 12 12 12 12 12 12 12 12 12 12 13 13 13 13 13 13 13 13 13 13 13 13
9 9 9 9 10 10 10 10 11 11 12 13 13 13 13 13 12 12 12 11 11 11 11 11 11 11 12 12 12 12 12 12 12 12 12 13 13 13
9 9 9 10 9 9 10 10 10 11 11 12 13 13 13 13 13 12 12 11 11 11 11 11 10 11 11 11 11 11 12 12 12 12 12 12 12 12
9 9 9 9 9 9 9 9 10 10 11 11 12 12 12 13 13 12 12 11 11 11 10 10 10 10 10 10 10 10 11 11 11 11 11 11 11 12
8 9 9 9 9 9 9 9 9 10 10 11 11 12 12 12 12 12 11 11 10 10 10 10 9 9 9 9 9 9 9 10 10 10 10 10 10 10
8 8 8 9 9 9 9 9 9 9 10 10 11 11 11 11 12 12 12 11 11 9 9 10 9 9 8 8 8 8 8 9 9 9 9 9 9 8
9 9 9 9 9 9 9 9 9 9 10 10 11 11 11 11 11 11 11 12 12 11 10 10 9 9 9 7 7 7 8 8 8 8 8 8 8 8
8 9 9 9 9 9 9 9 9 9 9 10 10 11 11 11 11 11 11 11 11 12 12 11 11 10 10 8 8 7 7 7 7 7 7 7 8 8
7 8 8 8 8 8 9 9 9 9 9 10 10 10 11 11 11 11 11 10 11 11 11 11 11 10 10 10 9 8 8 7 7 7 7 7 7 7
7 7 7 8 8 8 8 8 9 9 9 10 10 10 11 11 11 10 10 10 10 10 10 10 10 10 10 10 10 9 8 8 8 7 7 7 7 7
7 7 7 8 8 8 8 9 9 9 9 9 10 10 10 10 10 10 10 10 10 9 9 8 9 10 10 10 10 9 9 8 8 8 7 8 7 7
7 7 8 8 8 9 9 9 9 9 9 9 10 10 10 10 10 10 10 9 9 9 9 9 9 9 9 10 10 9 9 9 8 8 8 8 8 8
7 7 8 8 9 9 9 9 9 9 9 9 9 10 10 10 10 9 9 9 9 9 9 9 9 10 10 10 9 10 10 9 9 8 8 9 9 9
7 7 8 8 8 9 9 9 9 9 9 9 9 9 9 10 9 9 9 9 9 9 9 9 10 10 11 11 10 10 9 9 9 9 9 9 10 9
7 7 8 8 8 8 8 8 8 8 8 9 9 9 9 9 9 9 9 9 9 9 9 10 10 11 11 11 11 10 10 9 9 9 10 10 10 9
7 8 8 8 8 8 8 8 8 8 8 8 8 9 9 9 9 9 9 9 9 9 10 10 10 11 11 11 12 11 10 9 9 9 9 10 11 11
7 7 7 7 7 7 7 7 7 8 8 8 8 9 9 9 9 9 9 9 9 10 10 10 10 10 11 11 12 12 10 9 9 9 9 9 10 10
Wind_Speed
11 13 12 11 10 10 10 9 9 8 7 7 6 5 4 3 2 2 4 8 6 5 6 7 8 8 10 11 12 14 15 15 15 16 15 14 14 15
9 12 12 11 11 11 11 10 10 9 6 6 6 6 4 4 5 6 8 11 11 10 9 9 9 8 9 10 10 11 11 11 11 11 11 11 10 10
9 11 13 13 10 11 11 11 11 10 8 6 6 7 6 5 6 6 6 7 10 13 13 13 12 12 12 12 12 12 12 12 12 11 10 8 7 5
10 9 11 10 12 11 11 13 11 10 10 9 7 7 7 7 7 7 6 8 10 14 16 16 16 15 15 15 15 15 15 15 15 14 13 12 11 9
12 11 10 10 11 10 11 11 11 11 10 9 8 7 7 8 9 8 8 8 9 13 16 16 17 17 17 17 17 18 18 18 18 18 18 18 17 16
13 12 11 9 9 10 10 9 9 10 11 10 8 9 8 9 9 8 7 6 7 8 11 14 17 18 17 17 17 18 19 20 21 21 21 21 21 20
14 13 13 12 11 8 7 7 7 7 9 10 9 8 9 10 9 7 8 8 6 6 8 8 9 10 12 15 16 18 20 21 22 22 22 23 22 22
14 13 12 13 14 14 12 10 9 8 8 9 9 10 11 12 11 11 10 9 5 5 7 7 7 8 8 12 16 19 20 21 22 22 22 23 22 22
14 13 12 12 14 13 14 13 12 11 10 7 8 9 11 12 13 15 13 12 7 9 8 7 7 9 10 14 17 19 21 21 21 22 22 22 22 22
15 14 13 11 12 12 12 12 12 13 12 11 10 9 8 10 14 14 13 10 10 7 6 7 8 9 10 12 15 18 20 21 21 21 22 22 22 22
16 15 14 13 10 10 11 12 12 12 13 13 10 7 6 7 11 12 13 13 9 6 4 6 10 10 10 9 13 16 18 19 20 20 21 22 22 20
13 13 12 11 11 13 12 11 12 11 11 12 11 9 9 10 14 16 16 15 12 7 7 8 12 9 7 8 10 13 14 15 16 16 16 14 10 8
11 11 11 14 12 12 12 11 9 8 10 11 11 11 11 11 14 14 13 15 14 8 12 10 13 10 8 10 9 11 12 13 13 11 9 5 1 1
10 9 8 15 14 12 11 8 6 7 8 9 10 11 12 12 12 12 11 9 7 10 15 12 10 10 12 12 10 11 12 13 12 11 11 9 4 5
8 3 6 13 13 11 11 9 9 9 9 10 11 11 11 12 12 10 9 8 9 12 15 11 11 10 11 11 12 12 11 11 11 10 10 9 9 9
11 7 10 10 9 7 9 10 10 10 10 10 10 9 10 11 12 12 12 12 11 10 9 12 12 13 11 12 13 13 12 11 11 11 10 9 10 9
10 10 11 11 11 11 11 10 10 10 10 10 9 9 10 11 12 13 13 12 10 12 12 11 12 11 9 11 12 13 12 11 11 11 10 9 9 9
8 10 11 11 11 11 10 10 10 10 9 10 10 10 12 13 13 13 14 14 14 14 14 14 13 12 11 9 8 12 12 11 12 12 10 9 10 10
9 10 9 10 10 9 9 9 9 9 8 9 9 10 12 13 15 15 15 14 14 14 13 14 15 14 14 13 10 9 11 11 12 12 11 9 9 10
9 9 8 8 8 8 8 8 7 7 8 8 9 11 12 13 15 16 15 16 15 15 14 14 14 14 13 11 11 12 11 11 11 12 12 10 7 6
8 8 7 7 7 7 7 7 7 7 8 8 8 11 13 14 15 16 16 18 16 15 15 14 12 11 8 7 11 13 12 9 4 8 11 11 10 10
6 7 6 6 6 6 6 6 7 7 8 8 9 10 12 13 16 17 17 17 15 14 14 12 12 11 9 9 10 12 12 12 7 2 3 5 8 9
4 4 5 5 5 5 5 6 7 7 8 9 10 10 12 13 14 15 16 15 14 14 14 13 13 12 10 9 9 10 14 14 12 12 11 12 8 3
Wind_Direction
261 251 242 239 236 232 229 229 231 226 204 181 191 163 167 133 115 110 89 81 98 129 151 163 168 177 186 190 193 197 198 200 203 206 205 211 223 233
263 260 249 242 234 227 224 223 227 238 231 171 175 160 146 136 109 100 98 98 82 92 107 119 128 138 148 155 158 163 169 171 173 176 180 190 203 219
257 259 253 249 242 230 222 219 218 220 223 196 172 152 156 152 130 115 107 101 90 85 93 100 107 114 120 126 131 135 139 140 140 141 141 146 156 175
245 251 256 248 244 242 229 220 215 213 217 208 182 171 166 154 135 122 110 96 94 86 89 91 94 98 103 107 112 115 117 117 116 115 114 113 112 110
238 238 245 251 241 237 240 230 218 210 215 212 196 171 160 150 137 122 110 106 100 101 93 90 90 92 95 98 102 105 106 106 104 103 100 96 93 89
236 233 229 230 243 237 236 240 230 215 208 213 198 177 165 160 154 144 129 118 109 103 92 95 94 90 91 95 99 101 102 102 100 98 95 92 88 85
234 230 226 218 220 235 239 234 236 226 212 209 202 185 174 171 170 160 142 123 102 116 118 114 115 110 105 101 100 103 104 103 101 99 97 94 92 89
233 231 226 211 212 215 229 233 233 232 227 216 208 198 188 183 172 160 151 147 137 144 127 114 114 109 107 103 106 108 107 106 104 102 100 97 94 91
231 229 230 214 198 207 210 217 225 232 244 242 237 220 197 187 175 170 171 169 149 153 137 117 113 101 97 101 109 111 110 109 107 105 103 100 97 94
230 227 227 224 208 207 206 210 218 216 219 228 240 245 228 195 184 177 161 131 119 134 139 125 123 112 108 108 108 111 113 112 111 110 109 106 102 96
229 225 222 222 192 191 213 214 216 215 209 213 228 255 265 202 175 159 150 145 141 149 155 132 136 124 117 118 115 113 115 117 118 119 120 121 120 111
223 223 219 224 182 184 216 220 220 216 204 201 210 223 219 188 173 174 168 163 152 153 171 148 150 140 128 135 140 139 129 123 126 130 137 145 159 140
222 214 210 185 186 191 219 227 223 224 210 203 202 205 202 192 185 184 181 174 167 162 166 160 164 160 144 150 156 158 153 152 150 149 158 168 354 354
235 225 196 169 181 192 212 225 215 220 223 209 204 200 195 189 185 182 177 176 168 159 163 162 163 165 149 152 157 166 168 168 167 163 161 161 142 71
239 230 147 161 175 197 215 213 213 221 222 216 210 203 193 181 169 159 141 124 117 137 153 156 152 158 159 160 160 166 169 172 174 171 167 168 167 163
228 193 163 172 210 228 198 204 220 224 222 221 211 196 179 169 164 156 147 139 133 137 149 159 163 166 170 164 162 167 171 172 176 178 176 174 176 175
205 206 207 202 207 214 216 215 216 216 218 221 208 188 177 168 162 155 152 150 149 155 160 172 174 180 172 165 166 168 171 172 175 174 182 182 181 182
206 211 211 211 211 214 216 215 215 216 217 213 200 187 177 167 160 157 158 160 158 158 164 168 167 167 167 165 170 171 174 175 171 174 194 193 185 185
215 222 216 214 217 220 219 219 217 211 208 206 192 182 172 164 159 159 160 162 161 162 164 167 169 170 172 169 176 201 181 173 170 177 195 201 195 184
224 225 221 219 220 224 223 221 216 206 200 198 191 178 168 162 160 160 162 163 162 161 164 170 177 180 182 173 168 180 198 181 179 183 188 198 179 121
215 223 224 223 225 225 224 220 215 204 194 188 187 175 166 162 161 161 160 161 161 163 167 174 179 184 182 167 163 169 181 184 180 190 189 190 188 187
222 223 225 228 229 225 217 211 204 194 185 183 176 169 162 160 159 158 158 161 164 166 170 169 169 182 186 183 178 167 170 174 170 142 230 230 204 202
236 234 223 222 223 214 206 198 187 178 175 168 160 158 156 155 155 155 157 160 163 167 168 164 171 182 186 190 189 174 169 177 188 194 210 218 226 181
Height
1465 1468 1470 1473 1475 1477 1479 1481 1483 1482 1483 1485 1486 1486 1487 1487 1487 1489 1491 1492 1495 1498 1500 1503 1506 1508 1511 1513 1516 1518 1521 1524 1526 1529 1532 1534 1536 1539
1458 1460 1462 1466 1469 1471 1473 1476 1477 1479 1479 1481 1482 1483 1483 1485 1485 1486 1488 1490 1492 1494 1497 1500 1502 1505 1507 1509 1512 1514 1517 1519 1522 1524 1527 1529 1530 1533
1451 1452 1454 1458 1461 1464 1467 1470 1472 1474 1476 1478 1479 1479 1480 1482 1483 1484 1486 1487 1489 1491 1494 1497 1499 1502 1504 1506 1508 1511 1513 1516 1518 1520 1522 1524 1526 1528
1445 1446 1447 1449 1452 1457 1460 1463 1466 1468 1471 1473 1475 1476 1477 1479 1480 1481 1483 1485 1486 1489 1491 1494 1496 1499 1501 1503 1505 1508 1510 1512 1515 1517 1518 1520 1522 1524
1439 1440 1440 1441 1444 1448 1452 1456 1459 1462 1465 1468 1470 1472 1473 1475 1477 1479 1481 1483 1485 1487 1489 1491 1494 1497 1499 1501 1503 1506 1508 1510 1512 1514 1516 1518 1520 1521
1434 1434 1435 1436 1436 1440 1444 1448 1452 1456 1459 1463 1465 1467 1469 1472 1474 1476 1479 1481 1484 1486 1488 1490 1493 1495 1498 1500 1502 1505 1507 1509 1511 1513 1515 1516 1518 1519
1427 1428 1429 1430 1431 1433 1436 1440 1445 1448 1453 1456 1460 1463 1465 1468 1471 1473 1476 1479 1482 1485 1487 1490 1492 1495 1497 1500 1502 1504 1506 1509 1511 1513 1514 1516 1517 1519
1421 1422 1423 1424 1425 1427 1429 1433 1437 1441 1446 1450 1454 1458 1460 1463 1467 1469 1472 1476 1480 1484 1486 1489 1492 1495 1497 1499 1502 1504 1507 1509 1511 1513 1514 1516 1517 1519
1414 1416 1418 1419 1420 1422 1424 1426 1430 1434 1439 1444 1448 1453 1456 1459 1462 1465 1469 1474 1476 1480 1485 1488 1492 1494 1497 1499 1502 1504 1507 1509 1511 1513 1515 1516 1518 1519
1408 1410 1412 1414 1416 1418 1420 1422 1424 1428 1433 1437 1442 1447 1452 1455 1458 1462 1466 1470 1475 1479 1484 1487 1490 1493 1496 1499 1502 1505 1507 1509 1511 1513 1515 1516 1518 1519
1401 1404 1406 1409 1411 1413 1415 1418 1420 1423 1426 1431 1436 1441 1445 1450 1454 1459 1462 1466 1471 1476 1481 1484 1489 1492 1496 1499 1502 1505 1508 1510 1512 1513 1515 1517 1518 1519
1395 1398 1401 1404 1407 1409 1411 1414 1416 1418 1421 1425 1429 1434 1440 1444 1449 1454 1457 1462 1466 1472 1477 1481 1486 1490 1496 1500 1502 1504 1507 1509 1511 1513 1515 1517 1518 1521
1390 1392 1395 1398 1401 1404 1407 1409 1411 1414 1416 1419 1424 1429 1434 1439 1444 1449 1454 1458 1462 1466 1471 1477 1482 1487 1491 1497 1501 1504 1507 1509 1511 1513 1515 1517 1519 1521
1385 1388 1390 1393 1396 1399 1402 1404 1406 1409 1412 1414 1418 1422 1427 1432 1438 1444 1449 1454 1459 1463 1467 1472 1477 1483 1488 1493 1498 1503 1507 1509 1512 1514 1516 1517 1519 1521
1381 1384 1386 1389 1392 1394 1397 1399 1401 1403 1406 1409 1412 1416 1421 1427 1433 1439 1445 1449 1455 1460 1465 1470 1475 1481 1487 1491 1495 1500 1504 1508 1512 1514 1516 1518 1520 1521
1376 1379 1382 1384 1387 1390 1392 1393 1396 1399 1401 1404 1407 1411 1417 1422 1427 1433 1439 1444 1450 1456 1463 1469 1475 1481 1486 1491 1494 1498 1502 1506 1510 1513 1516 1518 1520 1522
1372 1375 1378 1380 1383 1385 1387 1389 1391 1393 1395 1398 1402 1406 1410 1416 1422 1428 1434 1440 1446 1452 1460 1468 1475 1481 1486 1490 1493 1497 1500 1504 1507 1511 1514 1517 1519 1521
1369 1371 1373 1375 1378 1380 1382 1383 1385 1388 1390 1393 1396 1400 1405 1410 1417 1423 1430 1436 1443 1450 1458 1465 1472 1479 1485 1490 1492 1495 1499 1502 1505 1508 1512 1515 1518 1520
1366 1367 1369 1371 1373 1375 1377 1378 1380 1382 1384 1387 1391 1395 1400 1405 1411 1418 1425 1433 1441 1448 1456 1463 1470 1475 1480 1485 1490 1493 1497 1500 1503 1506 1509 1513 1516 1518
1362 1364 1366 1367 1369 1371 1372 1374 1375 1377 1379 1382 1386 1391 1396 1401 1407 1414 1422 1430 1438 1446 1454 1461 1467 1472 1477 1481 1485 1490 1494 1498 1501 1504 1507 1510 1514 1515
1360 1361 1363 1364 1365 1366 1368 1369 1371 1372 1375 1378 1383 1387 1392 1398 1404 1412 1420 1428 1436 1443 1451 1458 1464 1471 1476 1480 1484 1487 1491 1495 1498 1501 1505 1508 1510 1512
1358 1359 1360 1361 1362 1363 1364 1365 1366 1368 1371 1375 1379 1384 1389 1395 1402 1410 1418 1426 1434 1442 1450 1457 1463 1469 1474 1477 1481 1484 1488 1491 1494 1497 1501 1504 1507 1510
1356 1356 1357 1357 1358 1359 1360 1361 1362 1365 1368 1372 1376 1382 1387 1394 1402 1409 1417 1425 1433 1441 1448 1455 1461 1467 1471 1475 1478 1481 1485 1488 1491 1494 1497 1500 1503 1505